Weather History for Tallahassee, FL

Change the Weather History Date:

Wednesday, March 20, 2013

  Actual Average Record
Temperature  
Mean Temperature 60 °F 61 °F  
Max Temperature 71 °F 75 °F 87 °F (1982)
Min Temperature 49 °F 48 °F 28 °F (1988)
Degree Days  
Heating Degree Days 5    
Month to date heating degree days 208  
Since 1 July heating degree days 1186  
Cooling Degree Days 0    
Month to date cooling degree days 9  
Year to date cooling degree days 59  
Growing Degree Days 10 (Base 50)    
Moisture  
Dew Point 35 °F    
Average Humidity 54    
Maximum Humidity 86    
Minimum Humidity 22    
Precipitation  
Precipitation T in 0.18 in 2.28 in (1933)
Month to date precipitation 1.40 4.12  
Year to date precipitation 14.61 13.31  
Sea Level Pressure  
Sea Level Pressure 29.98 in    
Wind  
Wind Speed 7 mph (NNE)    
Max Wind Speed 15 mph    
Max Gust Speed 20 mph    
Visibility 10 miles    
Events Rain    
T = Trace of Precipitation, MM = Missing Value Source: NWS Daily Summary

Daily Weather History Graph

Daily Weather History Graph

Search for Another Location

Airport:

Trip Planner

Search our weather history database for the weather conditions in past years. The results will help you decide how hot, cold, wet, or windy it might be!

Date:

Astronomy

Mar. 20, 2013 Rise Set
Actual Time 7:40 AM EDT 7:49 PM EDT
Civil Twilight 7:16 AM EDT 8:13 PM EDT
Nautical Twilight 6:49 AM EDT 8:40 PM EDT
Astronomical Twilight 6:20 AM EDT 9:09 PM EDT
Moon 1:45 PM EDT 2:57 AM EDT
Length of Visible Light 12h 56m
Length of Day
12h 08m
First Quarter, 59% of the Moon is Illuminated
Mar 20
First Quarter
Mar 27
Full
Apr 3
Last Quarter
Apr 10
New
Apr 18
First Quarter

Hourly Weather History & Observations

Time (EDT) Temp. Dew Point Humidity Pressure Visibility Wind Dir Wind Speed Gust Speed Precip Events Conditions
12:53 AM 57.9 °F 52.0 °F 81% 29.99 in 10.0 mi Calm Calm - N/A   Clear
1:53 AM 55.9 °F 52.0 °F 87% 29.99 in 10.0 mi Calm Calm - N/A   Mostly Cloudy
2:53 AM 62.1 °F 42.1 °F 48% 29.99 in 10.0 mi NE 8.1 mph - N/A   Scattered Clouds
3:53 AM 61.0 °F 34.0 °F 36% 29.97 in 10.0 mi NE 8.1 mph - N/A   Partly Cloudy
4:53 AM 60.1 °F 32.0 °F 35% 29.96 in 10.0 mi ENE 6.9 mph - N/A   Mostly Cloudy
5:53 AM 60.1 °F 33.1 °F 36% 29.97 in 10.0 mi ENE 4.6 mph - N/A   Mostly Cloudy
6:53 AM 59.0 °F 32.0 °F 36% 30.01 in 10.0 mi NE 5.8 mph - N/A   Mostly Cloudy
7:53 AM 57.9 °F 30.9 °F 36% 30.03 in 10.0 mi NNE 4.6 mph - N/A   Overcast
8:53 AM 59.0 °F 28.9 °F 32% 30.06 in 10.0 mi North 6.9 mph - N/A   Mostly Cloudy
9:53 AM 60.1 °F 30.9 °F 33% 30.06 in 10.0 mi Variable 6.9 mph 19.6 mph N/A   Mostly Cloudy
10:53 AM 59.0 °F 32.0 °F 36% 30.06 in 10.0 mi NE 8.1 mph 17.3 mph 0.00 in Rain Light Rain
11:53 AM 63.0 °F 30.0 °F 29% 30.04 in 10.0 mi ENE 10.4 mph - 0.00 in   Scattered Clouds
12:53 PM 66.9 °F 28.9 °F 24% 30.01 in 10.0 mi NE 8.1 mph - N/A   Clear
1:53 PM 69.1 °F 30.0 °F 23% 29.99 in 10.0 mi NE 6.9 mph 16.1 mph N/A   Partly Cloudy
2:53 PM 70.0 °F 28.0 °F 21% 29.95 in 10.0 mi NE 8.1 mph - N/A   Partly Cloudy
3:53 PM 70.0 °F 30.9 °F 24% 29.95 in 10.0 mi NW 6.9 mph - N/A   Scattered Clouds
4:53 PM 68.0 °F 32.0 °F 26% 29.95 in 10.0 mi North 11.5 mph - N/A   Mostly Cloudy
5:53 PM 68.0 °F 36.0 °F 31% 29.92 in 10.0 mi NW 13.8 mph - N/A   Mostly Cloudy
6:53 PM 64.9 °F 33.1 °F 31% 29.92 in 10.0 mi North 9.2 mph - N/A   Partly Cloudy
7:53 PM 63.0 °F 34.0 °F 34% 29.92 in 10.0 mi NNW 4.6 mph - N/A   Clear
8:53 PM 55.0 °F 37.0 °F 51% 29.93 in 10.0 mi Calm Calm - N/A   Clear
9:53 PM 54.0 °F 37.0 °F 53% 29.95 in 10.0 mi North 4.6 mph - N/A   Clear
10:53 PM 48.9 °F 37.9 °F 66% 29.96 in 10.0 mi WNW 3.5 mph - N/A   Clear
11:53 PM 52.0 °F 35.1 °F 53% 29.97 in 10.0 mi NW 6.9 mph - N/A   Clear